STARLINK-32318, 61864

Orbit data source: Space-Track

STARLINK-32318, 61864 is a payload satellite owned by SpaceX/Seattle (US) in LEO that was launched on Thu, 07 Nov 2024 UTC via an FALCON 9 launch vehicle from the Air Force Eastern Test Range (AFETR). Payload-class satellites include a variety of spacecraft equipped with specific instruments for various scientific and technological missions. These include communications satellites like Starlink; space stations such as the ISS; scientific satellites like the Hubble; Earth observation satellites from companies like Planet Labs, Umbra, and HawkEye 360; GPS; miniature CubeSats for education and research; and military/defense satellites.

Loading next visibility...
Identifier
61864, 2024-202V
Orbit
LEO
Country
Flag of USUS
Related business
Manufacturer
SpaceX/Seattle
Mission
Operational Commercial Communications
Bus & Motor
STARLINK V2M, Unknown motor
Mass
730 kg wet, ~700 kg dry
Launch date (UTC)
2024-11-07 (2 years ago)
Launch vehicle
FALCON 9
Launch site
Air Force Eastern Test Range (AFETR)
Object type
Payload
Rocket body
Debris
Shape & HBR
Box + 2 Pan, 17.7 m
Radar Cross Section
33.884 m², Large (>1 m²)

Expand to show TLE details & history
Last TLE update: 14 hours ago

TLE from 14 hours ago
0 STARLINK-32318
1 61864U 24202V   26171.27771171  .00000275  00000-0  19502-4 0  9990
2 61864  43.0010  18.9305 0001190 270.1216  89.9499 15.27581166 91023
Epoch: 2026-06-20T06:39Z
TLE epoch observation values (Epoch: 2026-06-20T06:39:54.291Z)
Latitude
-0.00005°
Longitude
10.4596°
Altitude
482.821 km
Speed
7.626 km/s
True Right ascension
01h 15m 43s
True Declination
0° 00' 00"
Sunlit
Object was in daylight at epoch
Visualization orbit readout
Latitude
Unknown
Longitude
Unknown
Altitude
Unknown
Speed
Unknown
Apparent Right ascension
Unknown
Apparent Declination
Unknown
Sunlit
N/A
Visualization observer readout
Local Sidereal Time
07:19:31
Azimuth
Unknown
Elevation
Unknown
Doppler factor
Unknown
Orbital elements
Apogee altitude
485.807 km
Perigee altitude
484.174 km
Semi-major axis
6,863.128 km
Eccentricity
0.00012
Inclination
43.001°
RAAN
18.9305°
Arg. of periapsis
270.1216°
True anomaly
89.96354°
Mean anomaly
89.9499°
Eccentric anomaly
89.95672°
Mean motion
3.81733 °/min
Orbital period
94.31 mins
BSTAR
0.000019502
Loading maneuver chart data...
Computing Atmospheric mass density...
Loading historical data...
Loading historical data...
Loading historical data...
Loading historical data...
Loading historical data...
Loading historical data...
Loading historical data...

Documentation

Showing up to 5 results
|